Location: Wiesbaden
(50.0830°N, 8.2500°E)
Time: 20:36:15
(UTC+02:00)

ISS - Pass Details

Date: 18 July 2019
Orbit: 409 x 418 km, 51.6° (Epoch: 20 July)

Event Time Altitude Azimuth Distance (km) Brightness Sun altitude
Rises 04:41:26 0° 285° (WNW) 2,346 -0.2 -7.6°
Reaches altitude 10° 04:43:50 10° 269° (W) 1,479 -1.4 -7.3°
Maximum altitude 04:46:24 21° 218° (SW) 980 -2.5 -7.0°
Drops below altitude 10° 04:48:58 10° 166° (SSE) 1,470 -1.3 -6.7°
Sets 04:51:21 0° 150° (SSE) 2,326 -0.1 -6.5°
